Location: Saint+Peter+Port
(49.4500°N, 2.5330°W)
Time: 21:56:05
(UTC+01:00)

BlueWalker 3 - Pass Details

Date: 03 March 2024
Orbit: 485 x 495 km, 53.2° (Epoch: 21 April)

Event Time Altitude Azimuth Distance (km) Brightness Sun altitude
Rises 18:40:35 0° 294° (WNW) 2,566 6.9 -7.9°
Reaches altitude 10° 18:42:46 10° 293° (WNW) 1,680 5.8 -8.3°
Maximum altitude 18:46:34 80° 207° (SSW) 500 1.9 -8.9°
Drops below altitude 10° 18:50:19 10° 120° (ESE) 1,667 4.0 -9.5°
Enters shadow 18:50:21 10° 120° (ESE) 1,676 4.1 -9.5°
